Find Starlink 35240

NORAD ID: 65655 Int'l Des: 2025-211 Owner: SPXS Country: US Constellation: starlink operational
LEOCIRCULARRETROGRADESSO

Live Position

Loading 3D Globe...

About Starlink 35240

Description loading...

Upcoming Passes

Passes for default location (London). Set your location on the main map for personalized predictions.

Altitude History

Loading altitude history...

Two-Line Element Set

1 65655U 25211D 26105.60664297 .00002631 00000-0 18650-3 0 9997
2 65655 97.6035 150.4068 0000994 111.5147 248.6186 15.05651610 32599
Epoch: Apr 15, 2026 • Age: 8 hours

Current Status

Altitude 553.5 km
Velocity 7.58 km/s
Sub-Earth Point -4.09°S, 30.56°W
Launch Date Sep 19, 2025
Age 0.5 years
Type internet

Technical Details

Classification Payload
Mass 575.00 kg
Dry Mass 530.00 kg
Total Mass 575.00 kg
Length 0.30 m
Diameter 4.10 m
Span 29.00 m
Shape Box + pan
Manufacturer SPXS
Bus Type Starlink V2MO
Phase Status In Orbit
Owner/State SPXS/US

Most Searched